Weather reports worldwide

Advertisment
Baltasound, United Kingdom (3002): temperature & dewpoint: 19.09.2017 10:00:00 - 25.09.2017 10:00:00 (BST)Baltasound, United Kingdom (3002): temperature -20cm: 19.09.2017 10:00:00 - 25.09.2017 10:00:00 (BST)Baltasound, United Kingdom (3002): wind speed & gusts: 19.09.2017 10:00:00 - 25.09.2017 10:00:00 (BST)Baltasound, United Kingdom (3002): wind direction: 19.09.2017 10:00:00 - 25.09.2017 10:00:00 (BST)Baltasound, United Kingdom (3002): reduced air pressure: 19.09.2017 10:00:00 - 25.09.2017 10:00:00 (BST)Baltasound, United Kingdom (3002): visibility: 19.09.2017 10:00:00 - 25.09.2017 10:00:00 (BST)Baltasound, United Kingdom (3002): precipitation: 19.09.2017 10:00:00 - 25.09.2017 10:00:00 (BST)
Date & Time tt [°C] td [°C] tt -20cm [°C] ff [km/h] ff [kn] fx [km/h] fx [kn] dd ppp [hPa] vv [km] rr [mm]
25.09.2017 10:00:00 13,3 13,0 12,2 28 15 - - SE 1026,3 7 0,0
25.09.2017 09:00:00 13,1 12,6 - 22 12 - - SE 1026,1 9 0,0
25.09.2017 08:00:00 12,8 12,4 - 21 11 - - SE 1026,0 8 0,0
25.09.2017 07:00:00 12,8 12,4 - 21 11 - - SE 1025,8 9 0,0
25.09.2017 06:00:00 12,8 12,3 - 22 12 - - SE 1025,5 10 0,0
25.09.2017 05:00:00 12,8 12,2 - 26 14 - - SSE 1025,3 10 0,0
25.09.2017 04:00:00 12,8 12,2 - 28 15 - - SSE 1025,1 10 0,0
25.09.2017 03:00:00 12,8 12,3 - 31 17 - - SE 1025,0 9 0,0
25.09.2017 02:00:00 12,8 12,2 - 26 14 - - SSE 1024,9 10 0,0
25.09.2017 01:00:00 12,8 12,2 - 26 14 - - SSE 1024,8 10 0,0
25.09.2017 00:00:00 12,9 12,2 - 26 14 - - SSE 1024,7 9 0,0
24.09.2017 23:00:00 12,9 12,2 - 26 14 - - SSE 1024,4 10 0,0
24.09.2017 22:00:00 13,0 12,2 - 26 14 - - SSE 1023,9 10 0,0
24.09.2017 21:00:00 13,1 12,3 - 31 17 - - SSE 1023,5 10 0,0
24.09.2017 20:00:00 13,1 12,3 - 34 18 48 26 SSE 1022,9 10 0,0
24.09.2017 19:00:00 13,2 12,3 - 34 18 46 25 SSE 1022,3 10 0,0
24.09.2017 18:00:00 13,3 12,3 - 34 18 46 25 SSE 1021,8 9 0,0
24.09.2017 17:00:00 13,4 12,2 - 34 18 46 25 SSE 1021,3 10 0,0
24.09.2017 16:00:00 13,6 12,4 - 31 17 48 26 SSE 1021,2 9 0,0
24.09.2017 15:00:00 13,8 12,5 - 34 18 50 27 SSE 1021,0 9 0,0
24.09.2017 14:00:00 13,9 12,6 - 35 19 52 28 SSE 1020,7 9 0,0
24.09.2017 13:00:00 13,8 12,4 - 35 19 50 27 SSE 1020,6 9 0,0
24.09.2017 12:00:00 13,9 12,6 - 37 20 57 31 SSE 1020,2 10 0,0
24.09.2017 11:00:00 14,2 12,8 - 39 21 55 30 SSE 1019,8 8 0,0
24.09.2017 10:00:00 13,8 12,9 12,0 37 20 52 28 SSE 1019,5 9 0,0
24.09.2017 09:00:00 13,4 12,7 - 35 19 52 28 SSE 1019,1 6 0,0
24.09.2017 08:00:00 13,2 12,6 - 39 21 54 29 SSE 1018,7 7 0,0
24.09.2017 07:00:00 13,3 12,3 - 37 20 52 28 SSE 1018,4 6 0,0
24.09.2017 06:00:00 13,3 12,0 - 39 21 52 28 SSE 1018,3 10 0,0
24.09.2017 05:00:00 13,2 12,1 - 37 20 52 28 SSE 1018,0 8 0,0
24.09.2017 04:00:00 13,2 12,0 - 35 19 57 31 SSE 1018,1 10 0,0
24.09.2017 03:00:00 12,9 11,7 - 37 20 54 29 SSE 1018,1 9 0,0
24.09.2017 02:00:00 13,0 11,7 - 39 21 57 31 SSE 1018,3 10 0,0
24.09.2017 01:00:00 13,1 11,6 - 35 19 55 30 SSE 1018,6 10 0,0
24.09.2017 00:00:00 13,1 12,0 - 39 21 55 30 SSE 1018,2 9 0,0
23.09.2017 23:00:00 13,2 12,1 - 42 23 59 32 SSE 1018,0 9 0,0
23.09.2017 22:00:00 13,3 12,3 - 46 25 63 34 SSE 1018,0 8 0,0
23.09.2017 21:00:00 13,1 12,2 - 46 25 57 31 SSE 1017,9 8 0,0
23.09.2017 20:00:00 13,2 12,3 - 39 21 57 31 SSE 1017,9 8 -
23.09.2017 19:00:00 13,3 12,3 - 41 22 55 30 SSE 1018,0 8 0,0
23.09.2017 18:00:00 13,3 12,0 - 41 22 59 32 SSE 1017,9 8 0,0
23.09.2017 17:00:00 13,5 12,3 - 37 20 52 28 SSE 1018,1 9 0,0
23.09.2017 16:00:00 13,7 12,3 - 39 21 52 28 SSE 1018,2 9 0,0
23.09.2017 15:00:00 13,9 12,4 - 39 21 54 29 SSE 1018,5 9 0,0
23.09.2017 14:00:00 13,7 12,2 - 37 20 50 27 SSE 1018,5 10 0,0
23.09.2017 13:00:00 13,6 12,1 - 35 19 50 27 SSE 1018,6 10 0,0
23.09.2017 12:00:00 13,3 11,9 - 34 18 48 26 SSE 1018,6 10 0,0
23.09.2017 11:00:00 13,2 11,8 - 35 19 48 26 SSE 1018,5 12 0,0
23.09.2017 10:00:00 13,1 11,4 12,0 35 19 46 25 SSE 1018,6 11 0,0
23.09.2017 09:00:00 12,8 11,3 - 29 16 - - SSE 1018,7 14 0,0
23.09.2017 08:00:00 12,3 10,8 - 34 18 - - SSE 1018,4 14 0,0
23.09.2017 07:00:00 11,8 10,4 - 29 16 - - SSE 1018,3 13 0,0
23.09.2017 06:00:00 11,8 10,3 - 34 18 46 25 SSE 1018,0 16 0,0
23.09.2017 05:00:00 11,8 10,0 - 34 18 - - SSE 1017,8 16 0,0
23.09.2017 04:00:00 11,6 10,0 - 26 14 - - SE 1018,1 21 0,0
23.09.2017 03:00:00 11,4 10,0 - 22 12 - - SSE 1018,4 30 0,0
23.09.2017 02:00:00 11,4 9,8 - 26 14 - - SSE 1018,5 30 0,0
23.09.2017 01:00:00 11,6 10,3 - 22 12 - - SSE 1018,5 22 0,0
23.09.2017 00:00:00 11,3 9,9 - 21 11 - - SSE 1018,5 24 0,0
22.09.2017 23:00:00 11,2 9,6 - 21 11 - - SSE 1018,4 30 0,0
22.09.2017 22:00:00 11,4 9,5 - 21 11 - - SSE 1018,6 27 0,0
22.09.2017 21:00:00 11,3 9,6 - 22 12 - - SSE 1018,4 28 0,0
22.09.2017 20:00:00 11,6 9,9 - 21 11 - - SSE 1018,4 22 0,0
22.09.2017 19:00:00 11,7 9,7 - 22 12 - - SSE 1018,3 22 0,0
22.09.2017 18:00:00 11,8 9,6 - 21 11 - - SSE 1017,9 29 0,0
22.09.2017 17:00:00 12,3 9,5 - 18 10 - - SSE 1017,9 30 0,0
22.09.2017 16:00:00 12,3 8,8 - 22 12 - - SSE 1017,9 30 0,0
22.09.2017 15:00:00 13,2 8,8 - 26 14 - - SSE 1018,0 40 0,0
22.09.2017 14:00:00 13,5 9,1 - 22 12 - - SSE 1017,9 30 0,0
22.09.2017 13:00:00 12,4 8,7 - 18 10 - - SSE 1017,6 29 0,0
22.09.2017 12:00:00 12,6 8,8 - 16 9 - - SSE 1017,4 16 0,0
22.09.2017 11:00:00 11,8 9,1 - 13 7 - - S 1017,1 30 0,0
22.09.2017 10:00:00 12,1 10,4 12,0 11 6 - - S 1016,5 24 0,0
22.09.2017 09:00:00 11,0 10,9 - 11 6 - - S 1015,9 23 0,0
22.09.2017 08:00:00 8,3 8,3 - 11 6 - - S 1015,1 23 0,0
22.09.2017 07:00:00 6,5 6,3 - 4 2 - - SW 1014,1 18 0,0
22.09.2017 06:00:00 7,2 7,0 - 4 2 - - W 1013,7 21 0,0
22.09.2017 05:00:00 8,6 8,3 - 8 4 - - WNW 1013,0 18 0,0
22.09.2017 04:00:00 9,5 9,3 - 11 6 - - NW 1012,3 24 0,2
22.09.2017 03:00:00 9,8 9,7 - 13 7 - - NW 1012,2 6 0,6
22.09.2017 02:00:00 9,9 9,7 - 13 7 - - NW 1011,5 3,4 0,4
22.09.2017 01:00:00 10,0 9,8 - 16 9 - - NNW 1011,1 4,3 0,4
22.09.2017 00:00:00 10,6 10,5 - 18 10 - - NW 1010,6 2,3 0,0
21.09.2017 23:00:00 10,4 10,2 - 2 1 - - NNW 1010,4 16 0,0
21.09.2017 22:00:00 10,4 10,2 - 0 0 - - N 1010,3 9 0,2
21.09.2017 21:00:00 10,4 10,1 - 2 1 - - E 1010,1 30 1,2
21.09.2017 20:00:00 10,4 10,1 - 2 1 - - ESE 1010,0 35 0,2
21.09.2017 19:00:00 10,7 10,3 - 0 0 - - N 1009,5 6 0,2
21.09.2017 18:00:00 10,7 10,3 - 9 5 - - WNW 1009,2 14 0,4
21.09.2017 17:00:00 10,8 10,4 - 8 4 - - WNW 1008,9 10 0,8
21.09.2017 16:00:00 11,0 10,5 - 9 5 - - W 1009,0 8 0,8
21.09.2017 15:00:00 11,9 11,5 - 11 6 - - WNW 1008,4 24 0,4
21.09.2017 14:00:00 12,0 11,7 - 9 5 - - NW 1008,2 14 0,6
21.09.2017 13:00:00 11,5 11,3 - 11 6 - - WNW 1008,0 40 0,2
21.09.2017 12:00:00 11,4 11,3 - 11 6 - - WNW 1007,6 5 0,0
21.09.2017 11:00:00 11,5 11,4 - 13 7 - - WNW 1007,0 10 0,0
21.09.2017 10:00:00 11,6 11,6 12,0 15 8 - - WNW 1006,5 9 0,4
21.09.2017 09:00:00 11,6 11,6 - 16 9 - - WNW 1006,3 3,3 0,6
21.09.2017 08:00:00 12,7 12,6 - 11 6 - - SSW 1005,9 3,4 0,6
21.09.2017 07:00:00 12,9 12,9 - 22 12 - - S 1006,0 2,4 0,2
21.09.2017 06:00:00 12,6 12,5 - 13 7 - - SSE 1005,8 1,7 0,2
21.09.2017 05:00:00 12,6 12,6 - 16 9 - - SSE 1006,0 1,0 0,2
21.09.2017 04:00:00 12,6 12,5 - 9 5 - - SSE 1006,3 2,9 2,0
21.09.2017 03:00:00 12,6 12,5 - 13 7 - - SE 1006,9 3,6 2,0
21.09.2017 02:00:00 12,6 12,4 - 16 9 - - SE 1007,2 4,1 2,4
21.09.2017 01:00:00 12,6 12,4 - 15 8 - - SE 1007,8 3,1 0,8
21.09.2017 00:00:00 12,6 12,2 - 16 9 - - ESE 1007,9 5 0,2
20.09.2017 23:00:00 12,6 12,1 - 21 11 - - SE 1008,3 11 0,0
20.09.2017 22:00:00 12,4 11,9 - 22 12 - - SE 1008,7 12 0,0
20.09.2017 21:00:00 12,3 11,6 - 18 10 - - SE 1009,0 15 0,0
20.09.2017 20:00:00 12,2 11,3 - 18 10 - - SE 1009,1 25 0,0
20.09.2017 19:00:00 11,9 11,0 - 18 10 - - SE 1009,0 23 0,0
20.09.2017 18:00:00 11,8 10,4 - 21 11 - - SSE 1009,3 22 0,2
20.09.2017 17:00:00 12,0 10,0 - 22 12 - - SSE 1009,5 30 0,0
20.09.2017 16:00:00 12,1 9,8 - 22 12 - - SSE 1009,7 40 0,0
20.09.2017 15:00:00 11,9 9,6 - 18 10 - - SSE 1009,8 45 0,0
20.09.2017 14:00:00 11,8 9,6 - 15 8 - - SE 1010,0 35 0,0
20.09.2017 13:00:00 11,6 8,9 - 13 7 - - SE 1010,0 35 0,0
20.09.2017 12:00:00 11,9 8,9 - 11 6 - - SSE 1010,3 45 0,0
20.09.2017 11:00:00 12,2 9,7 - 8 4 - - SSE 1010,4 35 0,0
20.09.2017 10:00:00 12,0 10,9 11,9 4 2 - - S 1010,8 40 0,0
20.09.2017 09:00:00 11,0 10,7 - 2 1 - - ESE 1011,0 35 0,0
20.09.2017 08:00:00 10,5 10,1 - 2 1 - - S 1010,9 13 0,0
20.09.2017 07:00:00 10,4 10,0 - 2 1 - - N 1011,4 6 0,2
20.09.2017 06:00:00 10,4 9,9 - 2 1 - - ENE 1011,5 2,5 0,0
20.09.2017 05:00:00 10,3 9,7 - 2 1 - - S 1011,8 35 0,0
20.09.2017 04:00:00 10,7 10,0 - 4 2 - - NNE 1012,2 35 0,0
20.09.2017 03:00:00 10,8 10,0 - 8 4 - - WNW 1012,6 27 0,0
20.09.2017 02:00:00 10,9 9,9 - 9 5 - - NW 1012,8 23 0,0
20.09.2017 01:00:00 10,9 9,6 - 9 5 - - NW 1013,0 22 0,0
20.09.2017 00:00:00 11,1 9,4 - 16 9 - - NW 1013,3 10 0,0
19.09.2017 23:00:00 11,3 9,4 - 15 8 - - NW 1013,7 29 0,0
19.09.2017 22:00:00 11,2 9,3 - 15 8 - - NW 1014,1 23 0,0
19.09.2017 21:00:00 11,3 9,4 - 16 9 - - NW 1014,4 22 0,0
19.09.2017 20:00:00 11,2 9,1 - 16 9 - - NW 1014,5 27 0,0
19.09.2017 19:00:00 11,4 9,0 - 21 11 - - NW 1014,4 30 0,0
19.09.2017 18:00:00 11,6 8,7 - 26 14 - - NW 1014,6 35 0,0
19.09.2017 17:00:00 11,9 9,0 - 28 15 - - NW 1014,7 35 0,0
19.09.2017 16:00:00 12,1 9,5 - 28 15 - - NW 1014,5 25 0,0
19.09.2017 15:00:00 12,5 9,7 - 29 16 - - NW 1014,6 30 0,0
19.09.2017 14:00:00 12,3 9,4 - 28 15 - - NW 1015,0 18 0,0
19.09.2017 13:00:00 12,3 9,2 - 31 17 - - WNW 1015,0 40 0,0
19.09.2017 12:00:00 12,7 9,4 - 31 17 - - NW 1014,9 30 0,0
19.09.2017 11:00:00 12,3 9,4 - 29 16 - - NW 1014,9 20 0,0
19.09.2017 10:00:00 12,1 9,3 11,7 26 14 - - NW 1015,1 22 0,0

tt = temperature
td = dewpoint
tt -20cm = temperature -20cm
ff = wind speed
fx = gusts
dd = wind direction
ppp = reduced air pressure
vv = visibility
rr = precipitation

Next stations